Location: Kaseke
(18.0171°S, 31.0526°E)
Time: 11:26:52
(UTC+00:00)

USA 229 DEB - Pass Details

Date: 14 July 2020
Orbit: 983 x 1229 km, 63.4° (Epoch: 24 June)

Event Time Altitude Azimuth Distance (km) Brightness Sun altitude
Rises 03:47:48 0° 199° (SSW) 3,796 6.2 -9.7°
Reaches altitude 10° 03:50:31 10° 195° (SSW) 2,812 5.6 -9.0°
Maximum altitude 03:56:57 56° 117° (ESE) 1,166 4.2 -7.6°
Drops below altitude 10° 04:03:10 10° 39° (NE) 2,728 6.9 -6.2°
Sets 04:05:46 0° 35° (NE) 3,674 7.6 -5.6°
